Find Starlink 31497

NORAD ID: 60592 Int'l Des: 2024-150 Owner: SPXS Country: US Constellation: starlink operational
LEOCIRCULAR

リアルタイム位置

3D地球を読み込み中...

Starlink 31497について

説明を読み込み中...

次回通過

Passes for default location (London). Set your location on the main map for personalized predictions.

高度履歴

Loading altitude history...

軌道要素

1 60592U 24150K 26130.39211066 .00000115 00000-0 14538-4 0 9996
2 60592 53.1615 20.0456 0001013 82.2175 277.8942 15.34392713 97498
Epoch: May 10, 2026 • Age: 12 hours

現在のステータス

高度 466.2 km
速度 7.63 km/s
衛星直下点 -12.12°S, 20.28°E
打ち上げ日 Aug 20, 2024
運用期間 1.7 years
タイプ internet

技術仕様

分類 Payload
質量 730.00 kg
乾燥質量 700.00 kg
総質量 730.00 kg
長さ 0.30 m
直径 4.10 m
スパン 29.00 m
形状 Box + pan
製造者 SPXS
バスタイプ Starlink V2M
フェーズステータス In Orbit
所有者/国 SPXS/US

Most Searched